Time,TemperatureF,DewpointF,PressureIn,WindDirection,WindDirectionDegrees,WindSpeedMPH,WindSpeedGustMPH,Humidity,HourlyPrecipIn,Conditions,Clouds,dailyrainin,SoftwareType,DateUTC
2013-06-28 00:01:00,72.0,65.0,29.81,NNW,348,0.0,0.0,80,0.00,,,0.23,,2013-06-28 05:01:00,
2013-06-28 00:11:00,72.0,65.0,29.81,NNW,348,0.0,0.0,80,0.00,,,0.23,,2013-06-28 05:11:00,
2013-06-28 00:22:00,72.0,67.0,29.81,NNW,348,0.0,0.0,83,0.00,,,0.23,,2013-06-28 05:22:00,
2013-06-28 00:33:00,71.0,66.0,29.80,NNW,348,0.0,0.0,83,0.00,,,0.23,,2013-06-28 05:33:00,
2013-06-28 00:43:00,71.0,66.0,29.80,NNW,348,0.0,0.0,84,0.00,,,0.23,,2013-06-28 05:43:00,
2013-06-28 00:53:00,71.0,66.0,29.80,NNW,348,0.0,0.0,84,0.00,,,0.23,,2013-06-28 05:53:00,
2013-06-28 01:02:00,71.0,66.0,29.80,NNW,348,0.0,0.0,84,0.00,,,0.23,,2013-06-28 06:02:00,
2013-06-28 01:12:00,71.0,66.0,29.80,NNW,348,0.0,0.0,84,0.00,,,0.23,,2013-06-28 06:12:00,
2013-06-28 01:22:00,70.0,66.0,29.79,NNW,348,0.0,0.0,86,0.00,,,0.23,,2013-06-28 06:22:00,
2013-06-28 01:33:00,70.0,66.0,29.79,NNW,348,0.0,0.0,88,0.00,,,0.23,,2013-06-28 06:33:00,
2013-06-28 01:43:00,70.0,66.0,29.79,NNW,348,0.0,0.0,88,0.00,,,0.23,,2013-06-28 06:43:00,
2013-06-28 01:52:00,70.0,66.0,29.79,NNW,348,0.0,0.0,87,0.00,,,0.23,,2013-06-28 06:52:00,
2013-06-28 02:01:00,70.0,66.0,29.79,NNW,348,0.0,0.0,87,0.00,,,0.23,,2013-06-28 07:01:00,
2013-06-28 02:11:00,70.0,66.0,29.78,NNW,348,0.0,0.0,87,0.00,,,0.23,,2013-06-28 07:11:00,
2013-06-28 02:22:00,70.0,66.0,29.78,NNW,348,0.0,0.0,87,0.00,,,0.23,,2013-06-28 07:22:00,
2013-06-28 02:33:00,70.0,66.0,29.78,NNW,348,0.0,0.0,88,0.00,,,0.23,,2013-06-28 07:33:00,
2013-06-28 02:42:00,70.0,66.0,29.78,NNW,348,0.0,0.0,88,0.00,,,0.23,,2013-06-28 07:42:00,
2013-06-28 02:52:00,70.0,66.0,29.78,NNW,348,0.0,0.0,86,0.00,,,0.23,,2013-06-28 07:52:00,
2013-06-28 03:01:00,70.0,65.0,29.78,NNW,348,0.0,0.0,84,0.00,,,0.23,,2013-06-28 08:01:00,
2013-06-28 03:11:00,70.0,65.0,29.78,NNW,348,0.0,0.0,84,0.00,,,0.23,,2013-06-28 08:11:00,
2013-06-28 03:21:00,70.0,65.0,29.78,NNW,348,0.0,0.0,84,0.00,,,0.23,,2013-06-28 08:21:00,
2013-06-28 03:33:00,70.0,65.0,29.78,NNW,348,0.0,0.0,84,0.00,,,0.23,,2013-06-28 08:33:00,
2013-06-28 03:43:00,69.0,64.0,29.78,NNW,348,0.0,0.0,85,0.00,,,0.23,,2013-06-28 08:43:00,
2013-06-28 03:52:00,69.0,64.0,29.77,NNW,348,0.0,0.0,85,0.00,,,0.23,,2013-06-28 08:52:00,
2013-06-28 04:02:00,69.0,64.0,29.77,NNW,346,0.0,0.0,84,0.00,,,0.23,,2013-06-28 09:02:00,
2013-06-28 04:11:00,69.0,64.0,29.77,NNW,346,0.0,0.0,84,0.00,,,0.23,,2013-06-28 09:11:00,
2013-06-28 04:22:00,69.0,64.0,29.77,NNW,346,0.0,0.0,84,0.00,,,0.23,,2013-06-28 09:22:00,
2013-06-28 04:33:00,69.0,63.0,29.75,NNW,346,0.0,0.0,82,0.00,,,0.23,,2013-06-28 09:33:00,
2013-06-28 04:52:00,69.0,63.0,29.76,NNW,346,0.0,0.0,81,0.00,,,0.23,,2013-06-28 09:52:00,
2013-06-28 05:02:00,69.0,63.0,29.77,NNW,346,0.0,0.0,81,0.00,,,0.23,,2013-06-28 10:02:00,
2013-06-28 05:11:00,69.0,63.0,29.77,NNW,347,0.0,0.0,80,0.00,,,0.23,,2013-06-28 10:11:00,
2013-06-28 05:22:00,69.0,63.0,29.77,NNW,347,0.0,0.0,80,0.00,,,0.23,,2013-06-28 10:22:00,
2013-06-28 05:33:00,70.0,64.0,29.77,NNW,347,0.0,0.0,81,0.00,,,0.23,,2013-06-28 10:33:00,
2013-06-28 05:42:00,70.0,64.0,29.77,NNW,347,0.0,0.0,81,0.00,,,0.23,,2013-06-28 10:42:00,
2013-06-28 05:52:00,70.0,64.0,29.77,NNW,347,0.0,0.0,82,0.00,,,0.23,,2013-06-28 10:52:00,
2013-06-28 06:02:00,70.0,64.0,29.77,NNW,347,0.0,0.0,82,0.00,,,0.23,,2013-06-28 11:02:00,
2013-06-28 06:11:00,70.0,64.0,29.78,NNW,347,0.0,0.0,82,0.00,,,0.23,,2013-06-28 11:11:00,
2013-06-28 06:22:00,70.0,64.0,29.78,NNW,347,0.0,0.0,82,0.00,,,0.23,,2013-06-28 11:22:00,
2013-06-28 06:34:00,70.0,64.0,29.78,NNW,347,0.0,0.0,82,0.00,,,0.23,,2013-06-28 11:34:00,
2013-06-28 06:43:00,70.0,64.0,29.78,NNW,347,0.0,0.0,82,0.00,,,0.23,,2013-06-28 11:43:00,
2013-06-28 06:53:00,70.0,64.0,29.78,NNW,347,0.0,0.0,82,0.00,,,0.23,,2013-06-28 11:53:00,
2013-06-28 07:01:00,71.0,65.0,29.79,NNW,344,0.0,0.0,81,0.00,,,0.23,,2013-06-28 12:01:00,
2013-06-28 07:12:00,71.0,65.0,29.79,NNW,344,0.0,0.0,81,0.00,,,0.23,,2013-06-28 12:12:00,
2013-06-28 07:22:00,71.0,65.0,29.79,NNW,344,0.0,0.0,81,0.00,,,0.23,,2013-06-28 12:22:00,
2013-06-28 07:33:00,73.0,65.0,29.80,NNW,344,0.0,0.0,76,0.00,,,0.23,,2013-06-28 12:33:00,
2013-06-28 07:43:00,73.0,65.0,29.80,NNW,344,0.0,0.0,76,0.00,,,0.23,,2013-06-28 12:43:00,
2013-06-28 07:52:00,74.0,64.0,29.80,NNW,344,0.0,0.0,72,0.00,,,0.23,,2013-06-28 12:52:00,
2013-06-28 08:01:00,74.0,64.0,29.80,NNW,344,0.0,0.0,72,0.00,,,0.23,,2013-06-28 13:01:00,
2013-06-28 08:11:00,74.0,64.0,29.80,NNW,344,0.0,0.0,72,0.00,,,0.23,,2013-06-28 13:11:00,
2013-06-28 08:23:00,74.0,64.0,29.80,NNW,344,0.0,0.0,72,0.00,,,0.23,,2013-06-28 13:23:00,
2013-06-28 08:33:00,77.0,63.0,29.80,North,0,0.0,1.0,63,0.00,,,0.23,,2013-06-28 13:33:00,
2013-06-28 08:43:00,77.0,62.0,29.80,North,0,0.0,0.0,60,0.00,,,0.23,,2013-06-28 13:43:00,
2013-06-28 08:53:00,78.0,62.0,29.81,North,0,0.0,3.0,58,0.00,,,0.23,,2013-06-28 13:53:00,
2013-06-28 09:02:00,78.0,62.0,29.81,North,5,0.0,2.0,58,0.00,,,0.23,,2013-06-28 14:02:00,
2013-06-28 09:11:00,79.0,63.0,29.81,North,5,0.0,0.0,58,0.00,,,0.23,,2013-06-28 14:11:00,
2013-06-28 09:22:00,79.0,62.0,29.81,North,5,0.0,2.0,57,0.00,,,0.23,,2013-06-28 14:22:00,
2013-06-28 09:33:00,79.0,62.0,29.81,North,5,0.0,1.0,56,0.00,,,0.23,,2013-06-28 14:33:00,
2013-06-28 09:44:00,79.0,62.0,29.81,North,5,0.0,1.0,56,0.00,,,0.23,,2013-06-28 14:44:00,
2013-06-28 09:53:00,79.0,61.0,29.82,North,0,0.0,0.0,54,0.00,,,0.23,,2013-06-28 14:53:00,
2013-06-28 10:02:00,79.0,60.0,29.82,North,9,0.0,3.0,53,0.00,,,0.23,,2013-06-28 15:02:00,
2013-06-28 10:11:00,79.0,60.0,29.82,North,9,0.0,3.0,53,0.00,,,0.23,,2013-06-28 15:11:00,
2013-06-28 10:24:00,79.0,58.0,29.82,NNE,29,0.0,4.0,49,0.00,,,0.23,,2013-06-28 15:24:00,
2013-06-28 10:34:00,79.0,58.0,29.82,NNE,29,0.0,4.0,49,0.00,,,0.23,,2013-06-28 15:34:00,
2013-06-28 10:43:00,79.0,58.0,29.82,NNE,29,0.0,4.0,49,0.00,,,0.23,,2013-06-28 15:43:00,
2013-06-28 10:52:00,79.0,58.0,29.82,NNE,29,0.0,4.0,49,0.00,,,0.23,,2013-06-28 15:52:00,
2013-06-28 11:01:00,79.0,58.0,29.82,NNE,29,0.0,4.0,49,0.00,,,0.23,,2013-06-28 16:01:00,
2013-06-28 11:33:00,81.0,58.0,29.80,NNE,15,0.0,5.0,46,0.00,,,0.18,,2013-06-28 16:33:00,
2013-06-28 11:44:00,81.0,58.0,29.80,NNE,15,0.0,5.0,46,0.00,,,0.18,,2013-06-28 16:44:00,
2013-06-28 11:53:00,81.0,58.0,29.80,NNE,15,0.0,5.0,46,0.00,,,0.18,,2013-06-28 16:53:00,
2013-06-28 12:02:00,82.0,55.0,29.81,ENE,59,1.0,12.0,40,0.00,,,0.17,,2013-06-28 17:02:00,
2013-06-28 12:11:00,82.0,55.0,29.81,ENE,59,1.0,12.0,40,0.00,,,0.17,,2013-06-28 17:11:00,
2013-06-28 12:22:00,82.0,55.0,29.81,ENE,59,1.0,12.0,40,0.00,,,0.17,,2013-06-28 17:22:00,
2013-06-28 12:33:00,82.0,55.0,29.81,ENE,59,1.0,12.0,40,0.00,,,0.17,,2013-06-28 17:33:00,
2013-06-28 12:44:00,82.0,55.0,29.81,NW,323,1.0,10.0,40,0.00,,,0.16,,2013-06-28 17:44:00,
2013-06-28 12:52:00,82.0,52.0,29.80,North,5,1.0,9.0,36,0.00,,,0.16,,2013-06-28 17:52:00,
2013-06-28 13:11:00,82.0,52.0,29.80,North,5,1.0,9.0,36,0.00,,,0.16,,2013-06-28 18:11:00,
2013-06-28 13:22:00,82.0,52.0,29.80,North,5,1.0,9.0,36,0.00,,,0.16,,2013-06-28 18:22:00,
2013-06-28 13:33:00,83.0,52.0,29.79,NW,315,2.0,11.0,35,0.00,,,0.16,,2013-06-28 18:33:00,
2013-06-28 13:43:00,83.0,52.0,29.79,NNW,334,4.0,13.0,35,0.00,,,0.16,,2013-06-28 18:43:00,
2013-06-28 13:52:00,83.0,55.0,29.79,North,0,1.0,13.0,39,0.00,,,0.16,,2013-06-28 18:52:00,
2013-06-28 14:01:00,83.0,55.0,29.79,North,0,1.0,13.0,39,0.00,,,0.16,,2013-06-28 19:01:00,
2013-06-28 14:11:00,81.0,52.0,29.79,North,5,2.0,13.0,37,0.00,,,0.12,,2013-06-28 19:11:00,
2013-06-28 14:22:00,81.0,54.0,29.79,SSW,202,0.0,14.0,40,0.00,,,0.03,,2013-06-28 19:22:00,
2013-06-28 14:33:00,83.0,52.0,29.78,SW,224,1.0,15.0,35,0.00,,,0.00,,2013-06-28 19:33:00,
2013-06-28 14:43:00,84.0,54.0,29.78,SSE,153,1.0,15.0,36,0.00,,,0.00,,2013-06-28 19:43:00,
2013-06-28 14:53:00,84.0,53.0,29.77,North,5,1.0,13.0,34,0.00,,,0.00,,2013-06-28 19:53:00,
2013-06-28 15:22:00,85.0,54.0,29.77,SSE,153,0.0,9.0,35,0.00,,,0.00,,2013-06-28 20:22:00,
2013-06-28 15:33:00,85.0,54.0,29.77,SSE,153,0.0,9.0,35,0.00,,,0.00,,2013-06-28 20:33:00,
2013-06-28 15:43:00,85.0,51.0,29.77,WSW,252,0.0,13.0,31,0.00,,,0.00,,2013-06-28 20:43:00,
2013-06-28 15:52:00,85.0,51.0,29.76,South,175,1.0,11.0,31,0.00,,,0.00,,2013-06-28 20:52:00,
2013-06-28 16:01:00,85.0,52.0,29.76,NNW,340,3.0,11.0,32,0.00,,,0.00,,2013-06-28 21:01:00,
2013-06-28 16:11:00,85.0,51.0,29.76,East,95,1.0,11.0,31,0.00,,,0.00,,2013-06-28 21:11:00,
2013-06-28 16:23:00,85.0,51.0,29.76,East,95,1.0,11.0,31,0.00,,,0.00,,2013-06-28 21:23:00,
2013-06-28 16:34:00,85.0,52.0,29.75,South,170,1.0,6.0,32,0.00,,,0.00,,2013-06-28 21:34:00,
2013-06-28 16:43:00,85.0,52.0,29.75,South,170,1.0,6.0,32,0.00,,,0.00,,2013-06-28 21:43:00,
2013-06-28 16:53:00,84.0,52.0,29.76,North,5,2.0,14.0,33,0.00,,,0.00,,2013-06-28 21:53:00,
2013-06-28 17:01:00,84.0,52.0,29.76,North,5,2.0,14.0,33,0.00,,,0.00,,2013-06-28 22:01:00,
2013-06-28 17:11:00,83.0,53.0,29.75,SE,131,1.0,12.0,36,0.00,,,0.00,,2013-06-28 22:11:00,
2013-06-28 17:22:00,83.0,53.0,29.75,SE,131,1.0,12.0,36,0.00,,,0.00,,2013-06-28 22:22:00,
2013-06-28 17:34:00,83.0,52.0,29.75,NNW,335,1.0,11.0,34,0.00,,,0.00,,2013-06-28 22:34:00,
2013-06-28 17:43:00,83.0,52.0,29.75,NNW,335,1.0,11.0,34,0.00,,,0.00,,2013-06-28 22:43:00,
2013-06-28 17:52:00,83.0,52.0,29.75,NNW,335,1.0,11.0,34,0.00,,,0.00,,2013-06-28 22:52:00,
2013-06-28 18:01:00,84.0,54.0,29.74,ENE,64,0.0,8.0,36,0.00,,,0.00,,2013-06-28 23:01:00,
2013-06-28 18:11:00,84.0,54.0,29.74,ENE,64,0.0,8.0,36,0.00,,,0.00,,2013-06-28 23:11:00,
2013-06-28 18:23:00,84.0,53.0,29.74,North,355,1.0,12.0,35,0.00,,,0.00,,2013-06-28 23:23:00,
2013-06-28 18:34:00,84.0,50.0,29.74,North,350,2.0,12.0,31,0.00,,,0.00,,2013-06-28 23:34:00,
2013-06-28 18:43:00,84.0,52.0,29.73,NE,48,1.0,11.0,33,0.00,,,0.00,,2013-06-28 23:43:00,
2013-06-28 18:53:00,84.0,53.0,29.72,NNE,18,0.0,10.0,34,0.00,,,0.00,,2013-06-28 23:53:00,
2013-06-28 19:02:00,84.0,53.0,29.72,NNE,18,0.0,10.0,34,0.00,,,0.00,,2013-06-29 00:02:00,
2013-06-28 19:11:00,83.0,52.0,29.72,North,5,0.0,9.0,34,0.00,,,0.00,,2013-06-29 00:11:00,
2013-06-28 19:22:00,83.0,52.0,29.72,NNW,336,0.0,9.0,35,0.00,,,0.00,,2013-06-29 00:22:00,
2013-06-28 19:33:00,83.0,52.0,29.72,North,0,1.0,13.0,34,0.00,,,0.00,,2013-06-29 00:33:00,
2013-06-28 19:42:00,83.0,52.0,29.72,North,0,1.0,13.0,34,0.00,,,0.00,,2013-06-29 00:42:00,
2013-06-28 19:52:00,83.0,52.0,29.72,North,0,1.0,13.0,34,0.00,,,0.00,,2013-06-29 00:52:00,
2013-06-28 20:01:00,83.0,52.0,29.72,North,0,1.0,13.0,34,0.00,,,0.00,,2013-06-29 01:01:00,
2013-06-28 20:11:00,83.0,52.0,29.72,North,350,1.0,13.0,34,0.00,,,0.00,,2013-06-29 01:11:00,
2013-06-28 20:22:00,83.0,52.0,29.72,North,350,1.0,13.0,34,0.00,,,0.00,,2013-06-29 01:22:00,
2013-06-28 20:32:00,83.0,52.0,29.72,North,350,1.0,13.0,34,0.00,,,0.00,,2013-06-29 01:32:00,
2013-06-28 20:42:00,83.0,52.0,29.72,North,350,1.0,13.0,34,0.00,,,0.00,,2013-06-29 01:42:00,
2013-06-28 20:51:00,83.0,52.0,29.72,North,350,1.0,13.0,34,0.00,,,0.00,,2013-06-29 01:51:00,
2013-06-28 21:41:00,78.0,50.0,29.72,NNW,345,0.0,5.0,38,0.00,,,0.00,,2013-06-29 02:41:00,
2013-06-28 21:51:00,78.0,50.0,29.72,NNW,345,0.0,5.0,38,0.00,,,0.00,,2013-06-29 02:51:00,
2013-06-28 22:01:00,78.0,50.0,29.72,NNW,345,0.0,5.0,38,0.00,,,0.00,,2013-06-29 03:01:00,
2013-06-28 22:11:00,78.0,50.0,29.72,NNW,345,0.0,5.0,38,0.00,,,0.00,,2013-06-29 03:11:00,
2013-06-28 22:21:00,78.0,50.0,29.72,NNW,345,0.0,5.0,38,0.00,,,0.00,,2013-06-29 03:21:00,